sat.trackr.live / text

‹ back to catalog

STARLINK-32343

NORAD 61712 · 2024-196F

PAYLOAD ACTIVE UNKNOWN

§ Identity

Operator
Country
US
Launch date
2024-10-30
Launch site
AFETR
Launch vehicle
Mass (kg)
RCS (m²)

Purposes: comms

External: N2YO · Heavens-Above · Gunter

§ Orbital elements

Epoch: 2026-05-25T03:54:27.559872Z

Period
94.11 min
Inclination
53.1603°
Eccentricity
0.0001375
Mean motion
15.30193695 rev/d
Perigee alt
474.3 km
Apogee alt
476.2 km
Semi-major
6,853.4 km
B*
2.6028e-5
RAAN
106.2235°
Arg perigee
85.2214°
Mean anomaly
274.8944°
Rev number
8,886

§ Raw data

STARLINK-323431 61712U 24196F   26145.16281898  .00000412  00000+0  26028-4 0  99982 61712  53.1603 106.2235 0001375  85.2214 274.8944 15.30193695 88864

JSON: /api/v1/satellites/61712 · /tle

For live sub-satellite position, see the globe view (requires WebGL).

§ Visibility from observer

Set your observer location to see the next 7 days of passes ≥ 10°. The values pass through the URL so the page stays shareable.

No JS? Fill the form by hand. The geolocation button needs JavaScript.